Woodruff, WI

9:47 PM CST on February 11, 2016 (GMT -0600)
Lakeland-Lee Memorial

Weather History for KARV - November, 2013

Change the Weather History Date:

Sunday, November 10, 2013

  Actual Average Record
Temperature  
Mean Temperature 36 °F -  
Max Temperature 39 °F 38 °F 62 °F (1917)
Min Temperature 34 °F 23 °F 8 °F (1957)
Degree Days  
Heating Degree Days 28    
Moisture  
Dew Point 29 °F    
Average Humidity 76    
Maximum Humidity 92    
Minimum Humidity 60    
Precipitation  
Precipitation 0.00 in - - ()
Sea Level Pressure  
Sea Level Pressure 30.10 in    
Wind  
Wind Speed 10 mph (West)    
Max Wind Speed 14 mph    
Max Gust Speed 25 mph    
Visibility 9 miles    
Events Snow    
Averages and records for this station are not official NWS values.
T = Trace of Precipitation, MM = Missing Value Source: NWS Daily Summary

Daily Weather History Graph

Daily Weather History Graph

Search for Another Location

Airport or City:

Trip Planner

Search our weather history database for the weather conditions in past years. The results will help you decide how hot, cold, wet, or windy it might be!

Date:

Astronomy

Nov. 10, 2013 Rise Set
Actual Time 6:52 AM CST 4:32 PM CST
Civil Twilight 6:20 AM CST 5:04 PM CST
Nautical Twilight 5:44 AM CST 5:40 PM CST
Astronomical Twilight 5:09 AM CST 6:15 PM CST
Moon 12:58 PM CST (11/10) No Moon Set
Length of Visible Light 10h 44m
Length of Day
9h 40m
First Quarter, 56% of the Moon is Illuminated
Nov 10
First Quarter
Nov 17
Full
Nov 25
Last Quarter
Dec 2
New
Dec 9
First Quarter

Hourly Weather History & Observations

Time (CST) Temp. Windchill Dew Point Humidity Pressure Visibility Wind Dir Wind Speed Gust Speed Precip Events Conditions
12:15 AM 36.5 °F 28.7 °F 32.4 °F 85% 29.95 in 10.0 mi WNW 11.5 mph 20.7 mph N/A   Overcast
12:35 AM 36.5 °F 28.7 °F 32.4 °F 85% 29.96 in 10.0 mi NW 11.5 mph 20.7 mph N/A   Overcast
12:55 AM 36.5 °F 28.2 °F 32.0 °F 84% 29.98 in 10.0 mi WNW 12.7 mph 20.7 mph N/A   Overcast
1:15 AM 36.5 °F 29.2 °F 32.0 °F 84% 29.98 in 10.0 mi NW 10.4 mph 18.4 mph N/A   Overcast
1:35 AM 36.5 °F 28.7 °F 32.0 °F 84% 30.00 in 10.0 mi WNW 11.5 mph 19.6 mph N/A   Overcast
1:55 AM 36.5 °F 28.7 °F 32.4 °F 85% 30.01 in 10.0 mi NW 11.5 mph 19.6 mph N/A   Overcast
2:15 AM 36.5 °F 27.8 °F 32.5 °F 86% 30.01 in 7.0 mi NW 13.8 mph 18.4 mph N/A   Overcast
2:35 AM 36.5 °F 28.2 °F 32.2 °F 84% 30.02 in 10.0 mi NW 12.7 mph 21.9 mph N/A   Overcast
2:55 AM 36.5 °F 27.8 °F 32.0 °F 84% 30.03 in 10.0 mi NW 13.8 mph 21.9 mph N/A   Overcast
3:15 AM 36.5 °F 28.2 °F 32.0 °F 84% 30.04 in 10.0 mi NW 12.7 mph 25.3 mph N/A   Overcast
3:35 AM 36.5 °F 28.2 °F 31.8 °F 83% 30.05 in 10.0 mi NW 12.7 mph 23.0 mph N/A   Overcast
3:55 AM 36.5 °F 28.2 °F 32.0 °F 84% 30.07 in 10.0 mi NW 12.7 mph 21.9 mph N/A   Overcast
4:15 AM 36.5 °F 29.7 °F 32.0 °F 84% 30.08 in 4.0 mi NW 9.2 mph - N/A Snow Light Snow
4:35 AM 34.0 °F 26.6 °F 32.0 °F 92% 30.09 in 3.0 mi NW 9.2 mph - N/A Snow Light Snow
4:55 AM 36.0 °F 29.0 °F 32.2 °F 86% 30.10 in 10.0 mi NW 9.2 mph - N/A   Clear
5:15 AM 36.5 °F 28.7 °F 31.5 °F 82% 30.12 in 10.0 mi NW 11.5 mph 19.6 mph N/A   Mostly Cloudy
5:35 AM 36.5 °F 28.7 °F 31.1 °F 81% 30.13 in 10.0 mi NW 11.5 mph 16.1 mph N/A   Overcast
5:55 AM 36.5 °F 29.7 °F 31.3 °F 81% 30.14 in 10.0 mi NW 9.2 mph - N/A   Overcast
6:15 AM 36.5 °F 29.7 °F 31.1 °F 81% 30.14 in 10.0 mi NW 9.2 mph 17.3 mph N/A   Overcast
6:35 AM 36.1 °F 27.7 °F 30.9 °F 81% 30.16 in 10.0 mi NW 12.7 mph 17.3 mph N/A   Overcast
6:55 AM 36.0 °F 29.0 °F 30.7 °F 81% 30.17 in 10.0 mi NW 9.2 mph - N/A   Overcast
7:15 AM 34.2 °F 28.2 °F 28.9 °F 81% 30.17 in 10.0 mi NW 6.9 mph - N/A   Overcast
7:35 AM 34.5 °F 29.4 °F 29.5 °F 82% 30.19 in 10.0 mi WNW 5.8 mph - N/A   Overcast
7:55 AM 36.1 °F 30.6 °F 31.1 °F 82% 30.20 in 10.0 mi WNW 6.9 mph - N/A   Overcast
8:15 AM 36.1 °F 28.7 °F 31.3 °F 83% 30.20 in 10.0 mi NW 10.4 mph - N/A   Overcast
8:35 AM 36.3 °F 29.5 °F 30.9 °F 81% 30.19 in 10.0 mi WNW 9.2 mph - N/A   Overcast
8:55 AM 36.5 °F 30.3 °F 30.4 °F 78% 30.19 in 10.0 mi NNW 8.1 mph - N/A   Overcast
9:15 AM 36.5 °F 29.7 °F 29.5 °F 76% 30.19 in 10.0 mi North 9.2 mph - N/A   Overcast
9:35 AM 36.5 °F 31.0 °F 29.3 °F 75% 30.19 in 10.0 mi NW 6.9 mph - N/A   Overcast
9:55 AM 36.5 °F 31.8 °F 29.7 °F 76% 30.19 in 10.0 mi NW 5.8 mph - N/A   Overcast
10:15 AM 36.5 °F 30.3 °F 29.7 °F 76% 30.21 in 10.0 mi NW 8.1 mph - N/A   Overcast
10:35 AM 36.5 °F 31.0 °F 28.9 °F 74% 30.22 in 10.0 mi WNW 6.9 mph - N/A   Overcast
10:55 AM 36.5 °F 31.0 °F 28.9 °F 74% 30.22 in 10.0 mi West 6.9 mph - N/A   Overcast
11:15 AM 36.5 °F 30.3 °F 28.2 °F 72% 30.21 in 10.0 mi West 8.1 mph 16.1 mph N/A   Overcast
11:35 AM 36.5 °F 29.7 °F 27.9 °F 71% 30.20 in 10.0 mi West 9.2 mph - N/A   Overcast
11:55 AM 36.5 °F 29.7 °F 28.4 °F 72% 30.19 in 10.0 mi WSW 9.2 mph - N/A   Overcast
12:15 PM 36.5 °F 29.2 °F 28.2 °F 72% 30.19 in 10.0 mi West 10.4 mph - N/A   Overcast
12:35 PM 36.5 °F 31.0 °F 28.2 °F 72% 30.18 in 10.0 mi West 6.9 mph - N/A   Overcast
12:55 PM 36.5 °F 31.8 °F 27.9 °F 71% 30.17 in 10.0 mi West 5.8 mph - N/A   Mostly Cloudy
1:15 PM 36.5 °F 32.7 °F 27.3 °F 69% 30.16 in 10.0 mi WSW 4.6 mph - N/A   Scattered Clouds
1:35 PM 37.4 °F 30.3 °F 27.1 °F 66% 30.15 in 10.0 mi SSW 10.4 mph - N/A   Clear
1:55 PM 39.2 °F 32.0 °F 27.9 °F 64% 30.14 in 10.0 mi SW 11.5 mph 17.3 mph N/A   Clear
2:15 PM 39.2 °F 32.5 °F 27.5 °F 63% 30.14 in 10.0 mi SW 10.4 mph 17.3 mph N/A   Clear
2:35 PM 39.2 °F 32.0 °F 27.3 °F 62% 30.13 in 10.0 mi SW 11.5 mph - N/A   Clear
2:55 PM 39.2 °F 33.0 °F 26.8 °F 61% 30.13 in 10.0 mi SW 9.2 mph - N/A   Clear
3:15 PM 39.2 °F 33.0 °F 26.8 °F 61% 30.13 in 10.0 mi SW 9.2 mph - N/A   Clear
3:35 PM 39.2 °F 33.0 °F 27.3 °F 62% 30.13 in 10.0 mi WSW 9.2 mph - N/A   Clear
3:55 PM 39.2 °F 33.6 °F 26.4 °F 60% 30.12 in 10.0 mi WSW 8.1 mph - N/A   Clear
4:15 PM 37.0 °F 33.3 °F 25.5 °F 63% 30.12 in 10.0 mi SW 4.6 mph - N/A   Clear
4:35 PM 36.5 °F 32.7 °F 25.7 °F 65% 30.10 in 10.0 mi SSW 4.6 mph - N/A   Clear
4:55 PM 36.5 °F 32.7 °F 26.8 °F 68% 30.10 in 10.0 mi SW 4.6 mph - N/A   Clear
5:15 PM 36.5 °F 32.7 °F 26.4 °F 67% 30.10 in 10.0 mi SW 4.6 mph - N/A   Clear
5:35 PM 36.5 °F 31.0 °F 26.2 °F 66% 30.09 in 10.0 mi SW 6.9 mph - N/A   Clear
5:55 PM 36.5 °F 30.3 °F 26.2 °F 66% 30.09 in 10.0 mi WSW 8.1 mph - N/A   Clear
6:15 PM 36.5 °F 30.3 °F 26.4 °F 67% 30.08 in 10.0 mi SW 8.1 mph - N/A   Clear
6:35 PM 36.5 °F 31.0 °F 26.6 °F 67% 30.08 in 10.0 mi SW 6.9 mph - N/A   Clear
6:55 PM 36.5 °F 32.7 °F 27.1 °F 69% 30.07 in 10.0 mi SW 4.6 mph - N/A   Scattered Clouds
7:15 PM 36.5 °F 32.7 °F 27.5 °F 70% 30.06 in 10.0 mi SW 4.6 mph - N/A   Scattered Clouds
7:35 PM 36.5 °F 32.7 °F 27.9 °F 71% 30.06 in 10.0 mi SW 4.6 mph - N/A   Mostly Cloudy
7:55 PM 36.5 °F 31.8 °F 27.5 °F 70% 30.05 in 10.0 mi SW 5.8 mph - N/A   Overcast
8:15 PM 36.5 °F 30.3 °F 27.9 °F 71% 30.05 in 10.0 mi WSW 8.1 mph - N/A   Overcast
8:35 PM 36.5 °F 31.0 °F 27.5 °F 70% 30.04 in 10.0 mi WSW 6.9 mph - N/A   Overcast
8:55 PM 37.0 °F 31.0 °F 27.5 °F 68% 30.04 in 10.0 mi West 8.1 mph - N/A   Overcast
9:15 PM 37.2 °F 30.0 °F 27.5 °F 68% 30.04 in 10.0 mi WSW 10.4 mph - N/A   Overcast
9:35 PM 36.5 °F 29.2 °F 27.1 °F 69% 30.04 in 10.0 mi West 10.4 mph 16.1 mph N/A Snow Light Snow
9:55 PM 36.5 °F 28.2 °F 28.6 °F 73% 30.04 in 5.0 mi West 12.7 mph 17.3 mph N/A Snow Light Snow
10:15 PM 36.5 °F 30.3 °F 29.3 °F 75% 30.03 in 7.0 mi West 8.1 mph - N/A Snow Light Snow
10:35 PM 36.5 °F 31.0 °F 31.8 °F 83% 30.03 in 3.0 mi WSW 6.9 mph - N/A Snow Light Snow
10:55 PM 34.0 °F 27.2 °F 30.9 °F 89% 30.02 in 2.5 mi WSW 8.1 mph - N/A Snow Light Snow
11:15 PM 34.0 °F 28.8 °F 31.8 °F 92% 30.03 in 1.8 mi West 5.8 mph - N/A Snow Light Snow
11:35 PM 34.0 °F 29.8 °F 32.0 °F 92% 30.02 in 1.8 mi WSW 4.6 mph - N/A Snow Light Snow
11:55 PM 34.0 °F 29.8 °F 32.0 °F 92% 30.02 in 3.0 mi West 4.6 mph - N/A Snow Light Snow